Flag for USA

Past Weather in South Washington Street Historic District, Georgia, USA — Yesterday and Last 2 Weeks

Now
82 °F

Sunny.


Feels Like: 87 °F
Forecast: 88 / 70 °F
Wind: 5 mph from North

Location: Clemson-Oconee County Airport

Current Time: Jul 21, 2019 at 11:32:36 am

Latest Report: Jul 21, 2019 at 10:54 am


Visibility: 10 mi

Pressure: 30.05 "Hg

Humidity: 72%

Dew Point: 72 °F

Location of South Washington Street Historic DistrictLocation

Past Weather in South Washington Street Historic District — Graph

°F

South Washington Street Historic District Temperature Yesterday

Maximum temperature yesterday: 86 °F (at 4:54 pm)
Minimum temperature yesterday: 73 °F (at 12:36 am)
Average temperature yesterday: 78 °F

High & Low Weather Summary for the Past Weeks

 TemperatureHumidityPressure
High92 °F (Jul 8, 3:54 pm)100% (Jul 7, 1:54 am)30.18 "Hg (Jul 7, 1:54 am)
Low69 °F (Jul 13, 10:37 pm)49% (Jul 16, 3:54 pm)29.81 "Hg (Jul 8, 5:54 pm)
Average79 °F81%30.01 "Hg
* Reported Jul 6 9:10 am — Jul 21 9:54 am, South Washington Street Historic District. Weather by CustomWeather, © 2019

Note: Actual official high and low records may vary slightly from our data, if they occured in-between our weather recording intervals... More about our weather records

Advertising

South Washington Street Historic District Weather History for the Previous 24 Hours

Scroll right to see more
 ConditionsComfort  
Time TempWeatherWind HumidityBarometerVisibility
9:54 am
Sun, Jul 21
78 °FSunny.8 mph84%30.05 "Hg10 mi
8:54 am75 °FSunny.9 mph88%30.06 "Hg10 mi
7:54 am73 °FSunny.7 mph94%30.04 "Hg10 mi
6:54 am71 °FSunny.3 mph96%30.03 "Hg10 mi
5:54 am71 °FClear.3 mph100%30.02 "Hg9 mi
4:54 am71 °FClear.No wind96%30.01 "Hg9 mi
3:54 am71 °FClear.No wind96%29.99 "Hg10 mi
2:54 am73 °FClear.5 mph90%30.00 "Hg10 mi
1:54 am71 °FClear.No wind96%30.00 "Hg10 mi
12:54 am73 °FClear.No wind94%30.04 "Hg10 mi
11:54 pm
Sat, Jul 20
74 °FClear.3 mph94%30.04 "Hg10 mi
11:08 pm75 °FPassing clouds.6 mph90%30.08 "Hg10 mi
10:54 pm75 °FThundershowers. Passing clouds.5 mph90%30.04 "Hg10 mi
9:54 pm80 °FPassing clouds.No wind79%30.02 "Hg10 mi
8:54 pm81 °FPartly cloudy.No wind79%30.00 "Hg10 mi
7:54 pm83 °FSunny.No wind72%29.98 "Hg10 mi
6:54 pm85 °FSunny.No wind63%29.99 "Hg10 mi
5:54 pm85 °FSunny.6 mph68%29.98 "Hg10 mi
4:54 pm86 °FSunny.6 mph67%30.00 "Hg10 mi
3:54 pm84 °FPartly sunny.6 mph72%30.02 "Hg10 mi
3:10 pm84 °FScattered clouds.5 mph67%30.05 "Hg10 mi
2:54 pm84 °FPartly sunny.3 mph70%30.02 "Hg10 mi
2:21 pm83 °FBroken clouds.3 mph72%30.07 "Hg10 mi
1:54 pm82 °FMostly cloudy.7 mph74%30.04 "Hg10 mi
12:54 pm80 °FMostly cloudy.6 mph79%30.06 "Hg10 mi
11:54 am80 °FOvercast.6 mph79%30.06 "Hg10 mi
Weather by CustomWeather, © 2019

See weather overview